UAL596 KLAS-KDEN

Flight info

Callsign UAL596
Flight time N/A
Altitude 37000
Route GIDGT3 TUKRR BUMMP SSKII4
Aircraft A21N/M-SDE2E3FGHIRWXY/LB1

Departure

Time 2026-05-06 12:30
Airport Harry Reid International Airport (KLAS)

Arrival

Time N/A
Airport Denver International Airport (KDEN)
Time Latitude Longitude Altitude Speed Heading
2026-05-06 12:12 36.08343 -115.13880 2193 ft 0 kts 222°
2026-05-06 12:16 36.08349 -115.13873 2197 ft 4 kts 222°
2026-05-06 12:16 36.08367 -115.13851 2194 ft 4 kts 223°
2026-05-06 12:16 36.08384 -115.13834 2195 ft 4 kts 206°
2026-05-06 12:17 36.08405 -115.13829 2193 ft 4 kts 152°
2026-05-06 12:17 36.08416 -115.13849 2196 ft 3 kts 90°
2026-05-06 12:17 36.08416 -115.13875 2193 ft 0 kts 90°
2026-05-06 12:24 36.08416 -115.13874 2193 ft 1 kts 90°
2026-05-06 12:24 36.08416 -115.13845 2194 ft 6 kts 90°
2026-05-06 12:24 36.08416 -115.13770 2196 ft 11 kts 90°
2026-05-06 12:25 36.08416 -115.13653 2193 ft 16 kts 90°
2026-05-06 12:25 36.08411 -115.13496 2195 ft 20 kts 108°
2026-05-06 12:25 36.08313 -115.13366 2193 ft 21 kts 133°
2026-05-06 12:25 36.08180 -115.13291 2195 ft 22 kts 181°
2026-05-06 12:26 36.08024 -115.13291 2193 ft 23 kts 179°
2026-05-06 12:26 36.07871 -115.13291 2194 ft 21 kts 180°
2026-05-06 12:26 36.07764 -115.13257 2196 ft 15 kts 118°
2026-05-06 12:26 36.07753 -115.13122 2194 ft 17 kts 89°
2026-05-06 12:27 36.07754 -115.12974 2194 ft 18 kts 90°
2026-05-06 12:27 36.07755 -115.12817 2193 ft 19 kts 90°
2026-05-06 12:27 36.07755 -115.12653 2193 ft 20 kts 89°
2026-05-06 12:27 36.07755 -115.12478 2193 ft 21 kts 90°
2026-05-06 12:28 36.07755 -115.12296 2194 ft 22 kts 90°
2026-05-06 12:28 36.07744 -115.12151 2195 ft 15 kts 127°
2026-05-06 12:28 36.07646 -115.12144 2195 ft 17 kts 237°
2026-05-06 12:28 36.07642 -115.12291 2194 ft 18 kts 274°
2026-05-06 12:29 36.07643 -115.12477 2194 ft 35 kts 269°
2026-05-06 12:29 36.07637 -115.13044 2197 ft 95 kts 270°
2026-05-06 12:29 36.07638 -115.14093 2198 ft 144 kts 270°
2026-05-06 12:29 36.07637 -115.15451 2197 ft 178 kts 268°
2026-05-06 12:30 36.07648 -115.17052 2574 ft 183 kts 270°
2026-05-06 12:30 36.07697 -115.18580 3110 ft 185 kts 270°
2026-05-06 12:30 36.07672 -115.20189 3561 ft 191 kts 264°
2026-05-06 12:30 36.07607 -115.21882 3958 ft 201 kts 268°
2026-05-06 12:31 36.07586 -115.23651 4348 ft 213 kts 269°
2026-05-06 12:31 36.07614 -115.25556 4687 ft 232 kts 275°
2026-05-06 12:31 36.08137 -115.27495 5152 ft 245 kts 306°
2026-05-06 12:31 36.09440 -115.28806 5890 ft 248 kts 336°
2026-05-06 12:32 36.11063 -115.29383 6722 ft 247 kts 349°
2026-05-06 12:32 36.12762 -115.29742 7485 ft 249 kts 354°
2026-05-06 12:32 36.14495 -115.29599 8201 ft 252 kts 16°
2026-05-06 12:32 36.15977 -115.28627 8881 ft 256 kts 40°
2026-05-06 12:33 36.17064 -115.26907 9597 ft 260 kts 59°
2026-05-06 12:33 36.17813 -115.24851 10298 ft 264 kts 68°
2026-05-06 12:33 36.18422 -115.22717 10962 ft 266 kts 68°
2026-05-06 12:33 36.19074 -115.20522 11439 ft 279 kts 67°
2026-05-06 12:34 36.19625 -115.18142 11722 ft 300 kts 81°
2026-05-06 12:34 36.19710 -115.15468 12006 ft 320 kts 88°
2026-05-06 12:34 36.19670 -115.12623 12284 ft 338 kts 88°
2026-05-06 12:34 36.19637 -115.09676 12524 ft 355 kts 88°
2026-05-06 12:35 36.19617 -115.06577 13075 ft 362 kts 88°
2026-05-06 12:35 36.19609 -115.03442 13776 ft 365 kts 87°
2026-05-06 12:35 36.19605 -115.00258 14420 ft 368 kts 88°
2026-05-06 12:35 36.19582 -114.97064 15062 ft 371 kts 87°
2026-05-06 12:36 36.19586 -114.93863 15700 ft 374 kts 86°
2026-05-06 12:36 36.19592 -114.90637 16296 ft 377 kts 86°
2026-05-06 12:36 36.19600 -114.87363 16902 ft 381 kts 86°
2026-05-06 12:36 36.19599 -114.84067 17503 ft 384 kts 87°
2026-05-06 12:37 36.19582 -114.80741 18100 ft 388 kts 86°
2026-05-06 12:37 36.19577 -114.77398 18629 ft 390 kts 86°
2026-05-06 12:37 36.19575 -114.74026 19150 ft 393 kts 86°
2026-05-06 12:37 36.19559 -114.70662 19652 ft 396 kts 86°
2026-05-06 12:38 36.19548 -114.67245 20175 ft 398 kts 86°
2026-05-06 12:38 36.19547 -114.63943 20682 ft 400 kts 86°
2026-05-06 12:38 36.19536 -114.60486 21163 ft 403 kts 87°
2026-05-06 12:38 36.19501 -114.57005 21652 ft 406 kts 86°
2026-05-06 12:39 36.19477 -114.53699 22122 ft 408 kts 86°
2026-05-06 12:39 36.19478 -114.50231 22628 ft 410 kts 85°
2026-05-06 12:39 36.19483 -114.46692 23101 ft 413 kts 86°
2026-05-06 12:39 36.19481 -114.43143 23550 ft 415 kts 86°
2026-05-06 12:40 36.19456 -114.39557 23946 ft 418 kts 86°
2026-05-06 12:40 36.19418 -114.35953 24360 ft 419 kts 86°
2026-05-06 12:40 36.19388 -114.32334 24784 ft 420 kts 86°
2026-05-06 12:40 36.19379 -114.28719 25197 ft 421 kts 85°
2026-05-06 12:41 36.19391 -114.25092 25607 ft 421 kts 84°
2026-05-06 12:41 36.19629 -114.21494 25997 ft 419 kts 78°
2026-05-06 12:41 36.20049 -114.17900 26411 ft 420 kts 77°
2026-05-06 12:41 36.20488 -114.14321 26799 ft 421 kts 77°
2026-05-06 12:42 36.20924 -114.10732 27192 ft 423 kts 77°
2026-05-06 12:42 36.21360 -114.07113 27594 ft 424 kts 77°
2026-05-06 12:42 36.21789 -114.03548 27982 ft 425 kts 77°
2026-05-06 12:42 36.22217 -113.99925 28368 ft 426 kts 77°
2026-05-06 12:43 36.22652 -113.96285 28730 ft 427 kts 76°
2026-05-06 12:43 36.23105 -113.92687 29073 ft 428 kts 76°
2026-05-06 12:43 36.23561 -113.89039 29412 ft 430 kts 76°
2026-05-06 12:43 36.24003 -113.85379 29816 ft 429 kts 76°
2026-05-06 12:44 36.24431 -113.81733 30216 ft 427 kts 77°
2026-05-06 12:44 36.24854 -113.78092 30533 ft 426 kts 76°
2026-05-06 12:44 36.25280 -113.74463 30854 ft 425 kts 76°
2026-05-06 12:44 36.25701 -113.70853 31151 ft 425 kts 76°
2026-05-06 12:45 36.26118 -113.67232 31477 ft 424 kts 76°
2026-05-06 12:45 36.26536 -113.63595 31790 ft 424 kts 76°
2026-05-06 12:45 36.27364 -113.56377 32367 ft 422 kts 76°
2026-05-06 12:46 36.27773 -113.52824 32624 ft 422 kts 76°
2026-05-06 12:46 36.28183 -113.49224 32878 ft 422 kts 76°
2026-05-06 12:46 36.28584 -113.45614 33126 ft 422 kts 76°
2026-05-06 12:46 36.28990 -113.42017 33364 ft 422 kts 76°
2026-05-06 12:47 36.29403 -113.38418 33602 ft 422 kts 76°
2026-05-06 12:47 36.29815 -113.34823 33818 ft 422 kts 76°
2026-05-06 12:47 36.30228 -113.31213 34026 ft 422 kts 76°
2026-05-06 12:47 36.30634 -113.27618 34168 ft 423 kts 76°
2026-05-06 12:48 36.31072 -113.24003 34285 ft 421 kts 73°
2026-05-06 12:48 36.33004 -113.17241 34494 ft 416 kts 62°
2026-05-06 12:48 36.34181 -113.13974 34607 ft 417 kts 62°
2026-05-06 12:49 36.35367 -113.10679 34728 ft 418 kts 62°
2026-05-06 12:49 36.36544 -113.07371 34846 ft 419 kts 62°
2026-05-06 12:49 36.37716 -113.04052 34955 ft 420 kts 62°
2026-05-06 12:49 36.38876 -113.00747 35077 ft 421 kts 62°
2026-05-06 12:50 36.40048 -112.97407 35191 ft 422 kts 63°
2026-05-06 12:50 36.42377 -112.90740 35391 ft 425 kts 63°
2026-05-06 12:50 36.43556 -112.87383 35492 ft 426 kts 63°
2026-05-06 12:51 36.44743 -112.83987 35593 ft 427 kts 63°
2026-05-06 12:51 36.45922 -112.80602 35694 ft 428 kts 63°
2026-05-06 12:51 36.47105 -112.77217 35783 ft 428 kts 63°
2026-05-06 12:52 36.49484 -112.70399 35963 ft 431 kts 63°
2026-05-06 12:52 36.51856 -112.63544 36134 ft 432 kts 63°
2026-05-06 12:53 36.54230 -112.56670 36297 ft 434 kts 63°
2026-05-06 12:53 36.56614 -112.49759 36461 ft 435 kts 63°
2026-05-06 12:54 36.59002 -112.42831 36619 ft 437 kts 63°
2026-05-06 12:54 36.61368 -112.35890 36770 ft 439 kts 64°
2026-05-06 12:55 36.63772 -112.28886 36906 ft 440 kts 63°
2026-05-06 12:55 36.66219 -112.21881 36982 ft 443 kts 64°
2026-05-06 12:56 36.68621 -112.14872 36967 ft 443 kts 64°
2026-05-06 12:56 36.71036 -112.07802 36953 ft 444 kts 64°
2026-05-06 12:57 36.73453 -112.00691 36936 ft 445 kts 64°
2026-05-06 12:57 36.75859 -111.93575 36929 ft 445 kts 64°
2026-05-06 12:58 36.78276 -111.86452 36914 ft 447 kts 64°
2026-05-06 12:58 36.80688 -111.79309 36927 ft 448 kts 64°
2026-05-06 12:59 36.83106 -111.72146 36952 ft 448 kts 64°
2026-05-06 12:59 36.85606 -111.65011 36979 ft 447 kts 58°
2026-05-06 13:00 36.88708 -111.58403 37024 ft 445 kts 56°
2026-05-06 13:00 36.91852 -111.51717 37031 ft 446 kts 56°
2026-05-06 13:01 36.95068 -111.45078 37035 ft 446 kts 56°
2026-05-06 13:01 36.97724 -111.39536 37029 ft 446 kts 56°
2026-05-06 13:02 37.00897 -111.32838 37010 ft 447 kts 56°
2026-05-06 13:02 37.04071 -111.26121 36967 ft 448 kts 56°
2026-05-06 13:03 37.07249 -111.19403 36931 ft 448 kts 56°
2026-05-06 13:03 37.10416 -111.12674 36883 ft 448 kts 56°
2026-05-06 13:04 37.13591 -111.05926 36851 ft 450 kts 56°
2026-05-06 13:04 37.16762 -110.99150 36846 ft 451 kts 56°
2026-05-06 13:05 37.19947 -110.92363 36844 ft 452 kts 57°
2026-05-06 13:05 37.23119 -110.85568 36839 ft 451 kts 56°
2026-05-06 13:06 37.26275 -110.78811 36832 ft 453 kts 57°
2026-05-06 13:06 37.29456 -110.71957 36831 ft 452 kts 57°
2026-05-06 13:07 37.32610 -110.65162 36831 ft 452 kts 56°
2026-05-06 13:07 37.35789 -110.58327 36830 ft 452 kts 57°
2026-05-06 13:08 37.38963 -110.51472 36833 ft 453 kts 57°
2026-05-06 13:08 37.42089 -110.44645 36834 ft 455 kts 57°
2026-05-06 13:09 37.45263 -110.37760 36839 ft 456 kts 56°
2026-05-06 13:09 37.48425 -110.30907 36816 ft 455 kts 57°
2026-05-06 13:10 37.51576 -110.24017 36837 ft 455 kts 57°
2026-05-06 13:10 37.54754 -110.17098 36847 ft 455 kts 57°
2026-05-06 13:11 37.57923 -110.10161 36846 ft 456 kts 57°
2026-05-06 13:11 37.61089 -110.03214 36844 ft 457 kts 57°
2026-05-06 13:12 37.64251 -109.96256 36850 ft 459 kts 57°
2026-05-06 13:12 37.67425 -109.89258 36860 ft 459 kts 57°
2026-05-06 13:13 37.70593 -109.82264 36886 ft 460 kts 57°
2026-05-06 13:13 37.73759 -109.75239 36906 ft 460 kts 57°
2026-05-06 13:14 37.76928 -109.68225 36922 ft 461 kts 57°
2026-05-06 13:14 37.80093 -109.61195 36921 ft 461 kts 57°
2026-05-06 13:15 37.83244 -109.54159 36915 ft 461 kts 57°
2026-05-06 13:15 37.86414 -109.47077 36897 ft 463 kts 57°
2026-05-06 13:16 37.89582 -109.40001 36880 ft 464 kts 57°
2026-05-06 13:16 37.92753 -109.32888 36856 ft 464 kts 57°
2026-05-06 13:17 37.95916 -109.25753 36858 ft 464 kts 57°
2026-05-06 13:17 37.99065 -109.18642 36857 ft 465 kts 57°
2026-05-06 13:18 38.02250 -109.11481 36861 ft 467 kts 57°
2026-05-06 13:18 38.05429 -109.04308 36857 ft 468 kts 57°
2026-05-06 13:19 38.08598 -108.97089 36861 ft 469 kts 57°
2026-05-06 13:19 38.11651 -108.89748 36848 ft 471 kts 60°
2026-05-06 13:20 38.14581 -108.82315 36837 ft 474 kts 60°
2026-05-06 13:20 38.17514 -108.74836 36839 ft 472 kts 60°
2026-05-06 13:21 38.20457 -108.67327 36822 ft 473 kts 60°
2026-05-06 13:21 38.23367 -108.59862 36833 ft 475 kts 60°
2026-05-06 13:22 38.26305 -108.52327 36833 ft 476 kts 60°
2026-05-06 13:22 38.29244 -108.44780 36830 ft 477 kts 60°
2026-05-06 13:23 38.32179 -108.37213 36829 ft 477 kts 60°
2026-05-06 13:23 38.35108 -108.29638 36834 ft 477 kts 60°
2026-05-06 13:24 38.38052 -108.22004 36862 ft 478 kts 60°
2026-05-06 13:24 38.40993 -108.14374 36900 ft 480 kts 60°
2026-05-06 13:25 38.43916 -108.06772 36880 ft 479 kts 60°
2026-05-06 13:25 38.46832 -107.99102 36950 ft 482 kts 61°
2026-05-06 13:26 38.49743 -107.91433 36972 ft 481 kts 61°
2026-05-06 13:26 38.52659 -107.83714 36974 ft 482 kts 61°
2026-05-06 13:27 38.55565 -107.75997 36957 ft 484 kts 61°
2026-05-06 13:27 38.58481 -107.68234 36924 ft 485 kts 61°
2026-05-06 13:28 38.61392 -107.60456 36883 ft 486 kts 61°
2026-05-06 13:28 38.64300 -107.52672 36841 ft 486 kts 61°
2026-05-06 13:29 38.67222 -107.44878 36820 ft 487 kts 61°
2026-05-06 13:29 38.70180 -107.37078 36819 ft 487 kts 61°
2026-05-06 13:30 38.73060 -107.29478 36827 ft 487 kts 61°
2026-05-06 13:30 38.76041 -107.21579 36840 ft 489 kts 61°
2026-05-06 13:31 38.78969 -107.13767 36850 ft 491 kts 61°
2026-05-06 13:31 38.81918 -107.05891 36853 ft 490 kts 62°
2026-05-06 13:32 38.84863 -106.97986 36831 ft 490 kts 61°
2026-05-06 13:32 38.87830 -106.90080 36816 ft 490 kts 61°
2026-05-06 13:33 38.90779 -106.82147 36841 ft 491 kts 62°
2026-05-06 13:33 38.93716 -106.74227 36853 ft 494 kts 61°
2026-05-06 13:34 38.96643 -106.66317 36852 ft 493 kts 62°
2026-05-06 13:34 38.99594 -106.58322 36850 ft 494 kts 62°
2026-05-06 13:35 39.02519 -106.50343 36899 ft 497 kts 62°
2026-05-06 13:35 39.05463 -106.42291 36939 ft 498 kts 62°
2026-05-06 13:36 39.08392 -106.34239 36979 ft 496 kts 62°
2026-05-06 13:36 39.11309 -106.26226 36995 ft 496 kts 62°
2026-05-06 13:37 39.14237 -106.18161 36999 ft 498 kts 62°
2026-05-06 13:37 39.17151 -106.10078 37006 ft 498 kts 63°
2026-05-06 13:38 39.20009 -106.01953 37008 ft 499 kts 63°
2026-05-06 13:38 39.22929 -105.93841 37015 ft 498 kts 62°
2026-05-06 13:39 39.25873 -105.85736 37048 ft 498 kts 63°
2026-05-06 13:39 39.28807 -105.77615 37068 ft 500 kts 63°
2026-05-06 13:40 39.31725 -105.69502 37087 ft 500 kts 63°
2026-05-06 13:40 39.34169 -105.62737 37107 ft 500 kts 62°
2026-05-06 13:41 39.37135 -105.54623 37120 ft 501 kts 63°
2026-05-06 13:41 39.40102 -105.46453 36331 ft 502 kts 63°
2026-05-06 13:41 39.41451 -105.42322 35838 ft 495 kts 72°
2026-05-06 13:42 39.42097 -105.37980 35038 ft 492 kts 88°
2026-05-06 13:42 39.42059 -105.33574 34446 ft 487 kts 94°
2026-05-06 13:42 39.41873 -105.29234 34154 ft 477 kts 94°
2026-05-06 13:42 39.41769 -105.24968 33559 ft 473 kts 92°
2026-05-06 13:43 39.41753 -105.20733 33001 ft 468 kts 91°
2026-05-06 13:43 39.41770 -105.16541 32459 ft 464 kts 91°
2026-05-06 13:43 39.41795 -105.12485 31956 ft 459 kts 91°
2026-05-06 13:43 39.41811 -105.08391 31472 ft 454 kts 91°
2026-05-06 13:44 39.41836 -105.04312 30937 ft 450 kts 91°
2026-05-06 13:44 39.41862 -105.00347 30494 ft 444 kts 91°
2026-05-06 13:44 39.41882 -104.96312 29898 ft 441 kts 92°
2026-05-06 13:44 39.41878 -104.92448 29382 ft 435 kts 95°
2026-05-06 13:45 39.41331 -104.88707 28973 ft 417 kts 115°
2026-05-06 13:45 39.38068 -104.83165 28326 ft 368 kts 155°
2026-05-06 13:45 39.35822 -104.81920 28031 ft 338 kts 178°
2026-05-06 13:46 39.33577 -104.81900 27747 ft 316 kts 195°
2026-05-06 13:46 39.31393 -104.82421 27465 ft 317 kts 206°
2026-05-06 13:46 39.29539 -104.83810 27173 ft 304 kts 227°
2026-05-06 13:46 39.28326 -104.85985 26883 ft 296 kts 249°
2026-05-06 13:47 39.27865 -104.88556 26614 ft 295 kts 262°
2026-05-06 13:47 39.27979 -104.91152 26310 ft 298 kts 285°
2026-05-06 13:47 39.28976 -104.93574 26056 ft 303 kts 295°
2026-05-06 13:47 39.29738 -104.96040 25772 ft 292 kts 274°
2026-05-06 13:48 39.29825 -104.98609 25516 ft 289 kts 268°
2026-05-06 13:48 39.29842 -105.01239 25243 ft 288 kts 269°
2026-05-06 13:48 39.29863 -105.03780 24980 ft 286 kts 269°
2026-05-06 13:48 39.29909 -105.06338 24717 ft 284 kts 270°
2026-05-06 13:49 39.29954 -105.08886 24454 ft 283 kts 270°
2026-05-06 13:49 39.30062 -105.11356 24191 ft 282 kts 275°
2026-05-06 13:49 39.30583 -105.13795 23914 ft 285 kts 292°
2026-05-06 13:49 39.31730 -105.15882 23649 ft 292 kts 310°
2026-05-06 13:50 39.33424 -105.17390 23328 ft 303 kts 330°
2026-05-06 13:50 39.35501 -105.18068 23025 ft 315 kts 349°
2026-05-06 13:50 39.37715 -105.17738 22712 ft 328 kts 12°
2026-05-06 13:50 39.39758 -105.16344 22413 ft 339 kts 34°
2026-05-06 13:51 39.41291 -105.13998 22121 ft 347 kts 59°
2026-05-06 13:51 39.42037 -105.11026 21828 ft 350 kts 84°
2026-05-06 13:51 39.42063 -105.07890 21556 ft 348 kts 92°
2026-05-06 13:51 39.41992 -105.04710 21287 ft 366 kts 91°
2026-05-06 13:52 39.41931 -105.01373 20632 ft 383 kts 91°
2026-05-06 13:52 39.41871 -104.97869 19705 ft 394 kts 91°
2026-05-06 13:52 39.41828 -104.94273 18724 ft 405 kts 87°
2026-05-06 13:52 39.42118 -104.90627 17847 ft 409 kts 81°
2026-05-06 13:53 39.42461 -104.86987 17230 ft 405 kts 82°
2026-05-06 13:53 39.42784 -104.83390 16666 ft 400 kts 82°
2026-05-06 13:53 39.43100 -104.79841 16140 ft 394 kts 83°
2026-05-06 13:53 39.43441 -104.76358 15608 ft 389 kts 80°
2026-05-06 13:54 39.44251 -104.73049 15100 ft 382 kts 66°
2026-05-06 13:54 39.45503 -104.70062 14572 ft 376 kts 52°
2026-05-06 13:54 39.47360 -104.67746 13988 ft 371 kts 33°
2026-05-06 13:54 39.49665 -104.66370 13431 ft 363 kts 14°
2026-05-06 13:55 39.52139 -104.65904 12829 ft 358 kts
2026-05-06 13:55 39.54622 -104.65799 12266 ft 352 kts 356°
2026-05-06 13:55 39.57013 -104.66056 11976 ft 339 kts 355°
2026-05-06 13:55 39.59317 -104.66269 11757 ft 325 kts 357°
2026-05-06 13:56 39.61523 -104.66310 11505 ft 309 kts
2026-05-06 13:56 39.63628 -104.66291 11111 ft 295 kts
2026-05-06 13:56 39.65639 -104.66264 10894 ft 283 kts
2026-05-06 13:56 39.67560 -104.66238 10722 ft 270 kts
2026-05-06 13:57 39.69393 -104.66216 10536 ft 255 kts
2026-05-06 13:57 39.71118 -104.66194 10336 ft 241 kts
2026-05-06 13:57 39.72722 -104.66175 10234 ft 220 kts
2026-05-06 13:57 39.74176 -104.66159 10095 ft 197 kts
2026-05-06 13:58 39.75416 -104.66145 9914 ft 159 kts
2026-05-06 13:58 39.76506 -104.66124 9093 ft 163 kts
2026-05-06 13:58 39.77704 -104.66124 7950 ft 181 kts
2026-05-06 13:58 39.78918 -104.66059 7381 ft 165 kts
2026-05-06 13:59 39.79984 -104.66141 7058 ft 144 kts
2026-05-06 13:59 39.80972 -104.66042 6659 ft 143 kts 356°
2026-05-06 13:59 39.81961 -104.66078 6194 ft 141 kts
2026-05-06 13:59 39.82946 -104.65998 5835 ft 154 kts 359°
2026-05-06 14:00 39.84243 -104.66112 6011 ft 212 kts 355°
2026-05-06 14:00 39.85726 -104.66116 7343 ft 216 kts
2026-05-06 14:00 39.87281 -104.66047 8495 ft 232 kts
2026-05-06 14:00 39.88969 -104.65991 9265 ft 248 kts
2026-05-06 14:01 39.90707 -104.65948 9665 ft 249 kts
2026-05-06 14:01 39.92402 -104.65741 9853 ft 249 kts
2026-05-06 14:01 39.94075 -104.65268 9930 ft 248 kts 25°
2026-05-06 14:01 39.95431 -104.63938 9962 ft 246 kts 53°
2026-05-06 14:02 39.96151 -104.61922 9995 ft 247 kts 80°
2026-05-06 14:02 39.96057 -104.59692 10000 ft 249 kts 107°
2026-05-06 14:02 39.95167 -104.57762 10005 ft 253 kts 134°
2026-05-06 14:02 39.93777 -104.56349 10021 ft 254 kts 144°
2026-05-06 14:03 39.92294 -104.55075 10012 ft 254 kts 145°
2026-05-06 14:03 39.90808 -104.53825 10002 ft 254 kts 145°
2026-05-06 14:03 39.89237 -104.52776 10001 ft 256 kts 164°
2026-05-06 14:03 39.87462 -104.52487 10014 ft 258 kts 177°
2026-05-06 14:04 39.85666 -104.52483 10013 ft 258 kts 179°
2026-05-06 14:04 39.83873 -104.52518 10015 ft 258 kts 178°
2026-05-06 14:04 39.82076 -104.52504 10012 ft 258 kts 177°
2026-05-06 14:04 39.80291 -104.52478 10012 ft 258 kts 177°
2026-05-06 14:05 39.78519 -104.52454 10010 ft 258 kts 177°
2026-05-06 14:05 39.76725 -104.52434 10012 ft 258 kts 177°
2026-05-06 14:05 39.74932 -104.52419 10012 ft 258 kts 177°
2026-05-06 14:05 39.73129 -104.52407 10013 ft 258 kts 177°
2026-05-06 14:06 39.71339 -104.52391 10011 ft 258 kts 177°
2026-05-06 14:06 39.69546 -104.52373 10012 ft 257 kts 177°
2026-05-06 14:06 39.67756 -104.52348 10013 ft 257 kts 177°
2026-05-06 14:06 39.65967 -104.52349 10003 ft 258 kts 184°
2026-05-06 14:07 39.64261 -104.53044 9994 ft 261 kts 211°
2026-05-06 14:07 39.62852 -104.54535 10014 ft 262 kts 223°
2026-05-06 14:07 39.61555 -104.56194 10018 ft 262 kts 224°
2026-05-06 14:07 39.60425 -104.58034 9973 ft 263 kts 244°
2026-05-06 14:08 39.60048 -104.60323 9979 ft 261 kts 276°
2026-05-06 14:08 39.60580 -104.62540 9992 ft 259 kts 303°
2026-05-06 14:08 39.61785 -104.64239 10002 ft 256 kts 320°
2026-05-06 14:08 39.63138 -104.65735 9992 ft 255 kts 326°
2026-05-06 14:09 39.64681 -104.66783 9720 ft 247 kts 340°
2026-05-06 14:09 39.66279 -104.67556 9038 ft 244 kts 342°
2026-05-06 14:09 39.67880 -104.68297 8321 ft 242 kts 342°
2026-05-06 14:09 39.69455 -104.68962 7639 ft 239 kts 348°
2026-05-06 14:10 39.71038 -104.69584 7168 ft 236 kts 342°
2026-05-06 14:10 39.72528 -104.70203 6987 ft 210 kts 354°
2026-05-06 14:10 39.73945 -104.69822 6965 ft 222 kts 34°
2026-05-06 14:10 39.75059 -104.68336 7020 ft 241 kts 56°
2026-05-06 14:11 39.75882 -104.66400 7118 ft 254 kts 59°
2026-05-06 14:11 39.77126 -104.64918 7093 ft 230 kts 25°
2026-05-06 14:11 39.78583 -104.64745 7006 ft 203 kts 346°
2026-05-06 14:11 39.79777 -104.65480 6893 ft 181 kts 334°
2026-05-06 14:12 39.79883 -104.65552 6867 ft 180 kts 334°